Location: México DF
(19.4326°N, 99.1332°W)
Time: 01:56:07
(UTC+00:00)

ISS - Pass Details

Date: 07 May 2026
Orbit: 414 x 424 km, 51.6° (Epoch: 15 May)

Event Time Altitude Azimuth Distance (km) Brightness Sun altitude
Rises 02:29:48 0° 230° (SW) 2,334 0.3 -20.1°
Reaches altitude 10° 02:31:56 10° 236° (WSW) 1,473 -0.6 -20.6°
Maximum altitude 02:35:07 44° 310° (NW) 579 -2.7 -21.2°
Enters shadow 02:37:34 15° 19° (NNE) 1,194 -1.4 -21.7°
